Location: Wellington
(41.3000°S, 174.7830°E)
Time: 16:45:33
(UTC+12:00)

Cosmos 2322 Rocket - Pass Details

Date: 24 January 2019
Orbit: 833 x 851 km, 71.0° (Epoch: 17 April)

Event Time Altitude Azimuth Distance (km) Brightness Sun altitude
Rises 22:56:34 0° 313° (NW) 3,395 5.3 -19.5°
Reaches altitude 10° 22:59:11 10° 305° (NW) 2,471 4.7 -19.8°
Maximum altitude 23:04:24 37° 238° (WSW) 1,315 3.7 -20.4°
Drops below altitude 10° 23:09:42 10° 171° (S) 2,507 5.2 -21.0°
Sets 23:12:24 0° 162° (SSE) 3,451 5.9 -21.3°
